EST,Max TemperatureF,Mean TemperatureF,Min TemperatureF,Max Dew PointF,MeanDew PointF,Min DewpointF,Max Humidity, Mean Humidity, Min Humidity, Max Sea Level PressureIn, Mean Sea Level PressureIn, Min Sea Level PressureIn, Max VisibilityMiles, Mean VisibilityMiles, Min VisibilityMiles, Max Wind SpeedMPH, Mean Wind SpeedMPH, Max Gust SpeedMPH,PrecipitationIn, CloudCover, Events, WindDirDegrees
2013-1-1,24,20,17,16,11,8,74,62,51,30.18,30.10,30.05,10,10,8,14,9,,0.00,7,Snow,288
2013-1-2,26,22,18,19,15,9,78,72,66,30.19,30.14,30.08,10,10,6,12,8,,0.00,8,Snow,237
2013-1-3,28,24,21,22,18,13,81,73,68,30.14,30.09,30.03,10,8,3,17,11,22,0.00,8,Snow,235
2013-1-4,34,30,26,22,20,18,81,69,60,30.17,30.02,29.93,10,10,9,29,19,38,0.00,1,,249
2013-1-5,34,26,19,30,24,16,93,82,64,30.26,30.11,29.95,10,5,1,14,8,23,0.00,4,Snow,202
2013-1-6,35,32,30,32,29,21,93,82,69,30.27,29.96,29.84,10,6,2,17,12,24,0.03,8,Snow,259
2013-1-7,37,32,28,24,22,20,79,68,52,30.32,30.22,30.07,10,10,10,23,9,31,0.00,3,,208
2013-1-8,37,32,28,28,24,21,80,72,67,30.22,30.16,30.09,10,8,6,20,12,24,0.00,0,,196
2013-1-9,46,38,30,32,27,23,79,66,47,30.43,30.11,29.96,10,10,6,31,15,44,0.01,2,,242
2013-1-10,44,34,25,31,25,21,85,72,49,30.58,30.46,30.19,10,10,6,12,6,,0.07,1,Rain,158
2013-1-11,51,43,35,49,41,32,94,89,83,30.14,29.85,29.71,10,6,2,16,9,25,0.65,7,Rain,178
2013-1-12,55,49,41,45,40,31,90,72,57,29.94,29.85,29.77,10,10,8,22,11,32,0.00,1,Rain,222
2013-1-13,39,34,27,36,32,20,93,88,75,30.04,29.90,29.82,10,6,0,26,7,32,0.41,8,Rain-Snow,285
2013-1-14,26,22,15,19,13,9,84,71,60,30.44,30.33,30.06,10,10,7,21,14,26,0.00,4,Snow,255
2013-1-15,26,19,12,16,13,10,88,76,63,30.45,30.36,30.18,10,10,6,10,5,,0.00,0,,219
2013-1-16,34,26,17,28,20,12,87,74,59,30.14,29.91,29.74,10,9,4,23,10,33,0.00,4,Snow,225
2013-1-17,30,24,15,27,16,3,86,70,50,30.35,30.17,29.97,10,9,2,18,9,28,0.00,8,Snow,336
2013-1-18,36,23,10,23,14,4,81,68,54,30.44,30.21,29.87,10,9,2,22,9,31,0.00,3,Snow,207
2013-1-19,42,38,33,34,29,22,87,70,59,29.88,29.71,29.49,10,9,1,26,15,41,0.03,5,Rain-Snow,222
2013-1-20,35,24,12,30,9,3,82,63,52,30.20,29.99,29.49,10,9,2,33,21,45,0.00,6,Snow,276
2013-1-21,15,9,3,10,2,-7,79,65,49,30.14,30.04,29.98,10,8,1,18,10,26,0.00,5,Snow,272
2013-1-22,8,4,0,-4,-7,-10,66,59,50,30.30,30.25,30.13,10,10,2,16,13,25,0.00,3,,279
2013-1-23,16,10,3,11,6,-4,84,74,58,30.30,30.15,30.05,10,5,1,15,8,18,0.00,7,Snow,247
2013-1-24,15,10,5,5,2,-1,84,70,54,30.64,30.52,30.21,10,10,10,14,7,,0.00,0,,354
2013-1-25,19,16,12,16,11,2,86,78,64,30.51,30.15,29.99,10,5,0,12,7,,0.00,8,Snow,166
2013-1-26,30,22,10,16,13,8,88,72,49,30.45,30.28,30.04,10,9,5,10,5,,0.00,4,,262
2013-1-27,28,22,15,24,18,9,88,76,56,30.47,30.31,30.11,10,5,0,16,8,,0.12,7,Fog-Rain-Snow,151
2013-1-28,39,34,28,38,32,25,93,89,82,30.10,29.95,29.81,10,5,1,15,10,,0.06,8,Rain,200
2013-1-29,55,44,34,52,44,31,96,91,82,30.00,29.66,29.40,10,4,0,16,9,24,0.99,8,Fog-Rain-Thunderstorm,165
2013-1-30,55,44,30,53,41,24,100,91,76,29.39,29.24,29.07,10,5,0,24,10,36,0.48,8,Fog-Rain,278
2013-1-31,30,24,17,21,12,6,73,63,48,29.88,29.57,29.23,10,10,3,30,22,40,0.00,8,Snow,277